Terminal Aerodrome Forecast
Issued by NWS

Home | Current Version | Previous Version | Graphics & Text | Print | Product List | Glossary On
Versions: 1 2 3 4 5 6 7 8 9 10 11 12 13 14 15 16 17 18 19 20 21
097
FTUS43 KUNR 051902 AAA
TAFGCC
TAF AMD
KGCC 051902Z 0519/0618 33018G28KT 5SM -SHSN BKN015
      TEMPO 0519/0521 2SM -SHSN VV010
     FM052300 34015KT P6SM BKN030=

USA.gov is the U.S. government's official web portal to all federal, state and local government web resources and services.